This demonstration page uses our WeatherBlox Daily Observations layout. Learn more.

Left ArrowRight Arrow

Hourly Observations for May 23, 2016

Temp ( °F °C ) Dew Point ( °F °C ) Humidity (%) Winds ( mph kmh ) Pressure ( in mb ) Visibility ( mi km ) Precip ( " mm )
12:54 am 00:54 Clear 72 22.2 63 17.2 73 73 S 17 28 29.77 1008 10 16 0.00 0.00
1:54 am 01:54 Mostly Cloudy 71 21.7 63 17.2 76 76 S 20 31 29.77 1008 10 16 0.00 0.00
2:54 am 02:54 Clear 70 21.1 62 16.7 76 76 S 20 31 29.75 1008 10 16 0.00 0.00
3:54 am 03:54 Clear 70 21.1 62 16.7 76 76 S 17 28 29.73 1007 10 16 0.00 0.00
4:25 am 04:25 Mostly Cloudy 70 21.1 62 16.7 76 76 SSW 12 19 29.77 1008 10 16 0.00 0.00
4:50 am 04:50 Mostly Cloudy 70 21 63 17 78 78 S 12 19 29.77 1008 10 16 0.00 0.00
4:54 am 04:54 Mostly Cloudy 70 21.1 63 17.2 79 79 S 13 20 29.77 1008 10 16 0.00 0.00
5:26 am 05:26 Cloudy 70 21 63 17 78 78 S 9 15 29.77 1008 10 16 0.00 0.00
5:54 am 05:54 Mostly Cloudy 69 20.6 62 16.7 78 78 S 12 19 29.76 1008 10 16 0.00 0.00
6:07 am 06:07 Mostly Cloudy 68 20 62 16.7 81 81 S 13 20 29.77 1008 10 16 0.00 0.00
6:54 am 06:54 Mostly Sunny 68 20 63 17.2 84 84 S 9 15 29.77 1008 8 13 0.00 0.00
7:54 am 07:54 Partly Cloudy 70 21.1 63 17.2 79 79 S 9 15 29.78 1009 9 14 0.00 0.00
8:25 am 08:25 Mostly Cloudy 72 22 63 17 73 73 S 16 26 29.77 1008 8 13 0.00 0.00
8:54 am 08:54 Mostly Cloudy 71 21.7 63 17.2 76 76 S 18 30 29.78 1009 8 13 0.00 0.00
9:37 am 09:37 Cloudy with Nearby Thunderstorms 70 21.1 65 18.3 84 84 SSW 15 24 29.80 1009 6 10 0.00 0.03
9:50 am 09:50 Cloudy with Thunderstorms 70 21 64 18 83 83 S 13 20 29.77 1008 6 10 0.00 0.00
9:54 am 09:54 Cloudy with Thunderstorms 69 20.6 65 18.3 87 87 S 13 20 29.78 1008 6 10 0.00 0.03
10:31 am 10:31 Cloudy with Light Rain 68 20 64 18 88 88 S 14 22 29.77 1008 6 10 0.00 0.00
10:54 am 10:54 Mostly Cloudy with Mist and Fog 68 20 65 18.3 90 90 S 9 15 29.78 1009 6 10 0.01 0.25
11:54 am 11:54 Mostly Sunny 69 20.6 66 18.9 90 90 S 14 22 29.76 1008 7 11 0.00 0.03
12:54 pm 12:54 Sunny 74 23.3 67 19.4 79 79 S 9 15 29.76 1008 8 13 0.00 0.00
1:54 pm 13:54 Mostly Sunny 78 25.6 68 20 71 71 S 15 24 29.75 1008 9 14 0.00 0.00
2:49 pm 14:49 Mostly Cloudy with Nearby Thunderstorms 79 26 66 19 65 65 S 20 31 29.71 1006 9 14 0.00 0.00
2:54 pm 14:54 Mostly Cloudy with Nearby Thunderstorms 78 25.6 66 18.9 67 67 S 17 28 29.73 1007 9 14 0.00 0.00
3:12 pm 15:12 Mostly Cloudy with Thunderstorms 79 26.1 66 18.9 65 65 S 15 24 29.71 1006 10 16 0.00 0.00
3:26 pm 15:26 Mostly Cloudy 79 26 66 19 65 65 S 16 26 29.71 1006 9 14 0.00 0.00
3:54 pm 15:54 Partly Cloudy 78 25.6 66 18.9 67 67 S 16 26 29.74 1007 10 16 0.00 0.00
4:54 pm 16:54 Mostly Cloudy with Light Rain 74 23.3 67 19.4 79 79 S 13 20 29.74 1007 7 11 0.00 0.03
5:09 pm 17:09 Mostly Cloudy with Nearby Thunderstorms 73 23 66 19 78 78 S 14 22 29.71 1006 9 14 0.00 0.00
5:24 pm 17:24 Mostly Cloudy 75 23.9 67 19.4 76 76 S 10 17 29.71 1006 9 14 0.00 0.03
5:54 pm 17:54 Mostly Sunny 77 25 64 17.8 64 64 S 16 26 29.73 1007 10 16 0.00 0.03
6:54 pm 18:54 Sunny 75 23.9 63 17.2 66 66 SSE 14 22 29.72 1007 10 16 0.00 0.00
7:54 pm 19:54 Sunny 73 22.8 61 16.1 66 66 SSE 16 26 29.74 1007 10 16 0.00 0.00
8:54 pm 20:54 Mostly Clear 69 20.6 61 16.1 76 76 S 8 13 29.75 1007 10 16 0.00 0.00
9:54 pm 21:54 Mostly Cloudy 70 21.1 62 16.7 76 76 SSE 10 17 29.75 1008 10 16 0.00 0.00
10:52 pm 22:52 Cloudy with Nearby Thunderstorms 72 22 61 16 69 69 SSE 15 24 29.74 1007 10 16 0.00 0.00
10:54 pm 22:54 Cloudy with Nearby Thunderstorms 72 22 61 16 69 69 SSE 14 22 29.74 1007 10 16 0.00 0.00
11:07 pm 23:07 Cloudy with Nearby Thunderstorms 69 20.6 59 15 70 70 WNW 24 39 29.80 1009 10 16 0.00 0.00
11:14 pm 23:14 Cloudy with Thunderstorms 64 18 59 15 83 83 W 18 30 29.85 1011 5 8 0.00 0.00
11:20 pm 23:20 Cloudy with Strong Thunderstorms 61 16 57 14 88 88 WNW 13 20 29.80 1009 1 1 0.00 0.00
11:23 pm 23:23 Cloudy with Strong Thunderstorms 61 16 57 14 88 88 W 16 26 29.83 1010 1 1 0.00 0.00
11:29 pm 23:29 Cloudy with Strong Thunderstorms 60 15.6 58 14.4 93 93 SW 13 20 29.83 1010 1 2 0.63 16.00
11:37 pm 23:37 Cloudy with Thunderstorms 60 15.6 58 14.4 93 93 SW 10 17 29.83 1010 3 4 0.71 18.03
11:44 pm 23:44 Cloudy with Strong Thunderstorms 61 16 57 14 88 88 SSW 12 19 29.85 1011 3 5 0.00 0.00
11:54 pm 23:54 Cloudy with Strong Thunderstorms 61 16.1 58 14.4 90 90 S 13 20 29.82 1010 3 4 0.85 21.59

Powered by AerisWeather